Date,TemperatureHighF,TemperatureAvgF,TemperatureLowF,DewpointHighF,DewpointAvgF,DewpointLowF,HumidityHigh,HumidityAvg,HumidityLow,PressureMaxIn,PressureMinIn,WindSpeedMaxMPH,WindSpeedAvgMPH,GustSpeedMaxMPH,PrecipitationSumIn
2013-1-1,32.3,28.8,18.4,31.3,26.3,16.0,98,90,76,30.13,30.01,9,1,9,0.01
2013-1-2,27.3,17.4,8.9,19.8,14.0,6.6,95,87,64,30.26,30.11,5,0,5,0.00
2013-1-3,34.6,22.1,8.7,25.7,17.1,6.6,93,82,58,30.31,30.21,7,0,8,0.02
2013-1-4,35.4,28.6,23.6,26.1,22.8,19.0,86,79,62,30.32,30.26,11,1,11,0.03
2013-1-5,39.9,29.6,16.5,29.5,24.4,14.6,96,82,64,30.36,30.15,9,1,9,0.01
2013-1-6,37.9,32.5,26.6,33.3,28.4,23.1,91,85,81,30.33,29.99,10,1,10,0.01
2013-1-7,39.2,28.4,17.9,29.1,23.7,16.2,96,83,65,30.47,30.25,9,1,9,0.01
2013-1-8,49.4,33.9,22.1,35.3,28.2,19.9,94,81,57,30.31,30.21,7,0,8,0.00
2013-1-9,52.2,41.3,30.8,43.0,36.0,28.9,95,82,63,30.48,30.19,8,0,9,0.04
2013-1-10,43.5,35.3,27.6,38.4,32.1,26.4,97,88,80,30.50,30.10,13,3,13,0.04
2013-1-11,60.6,52.6,43.5,55.8,49.2,38.4,98,88,75,30.10,29.86,15,3,15,0.43
2013-1-12,63.9,58.3,52.9,62.0,56.4,49.3,99,94,84,29.98,29.75,14,1,14,0.01
2013-1-13,65.0,54.4,35.5,61.9,53.0,34.5,98,95,83,30.06,29.67,20,3,20,0.69
2013-1-14,35.7,26.7,23.9,34.9,23.9,21.0,97,89,81,30.43,30.06,9,2,9,0.00
2013-1-15,30.8,27.4,22.8,26.6,23.8,20.3,92,86,81,30.38,30.06,11,4,13,0.00
2013-1-16,36.6,32.1,29.9,30.4,27.7,26.2,90,84,72,30.09,29.96,7,1,7,0.00
2013-1-17,43.1,32.2,25.1,33.2,27.2,19.4,92,82,64,30.36,30.06,11,1,11,0.00
2013-1-18,39.2,28.1,16.0,25.7,19.8,14.1,95,72,46,30.51,30.21,12,2,12,0.00
2013-1-19,53.9,44.1,34.6,31.6,28.2,24.8,68,54,38,30.22,29.87,19,4,19,0.00
2013-1-20,45.4,32.7,23.6,36.7,20.7,12.7,81,61,42,30.18,29.85,13,1,15,0.00
2013-1-21,25.9,20.6,8.9,18.9,12.4,0.9,81,70,52,30.23,30.06,12,1,12,0.00
2013-1-22,20.7,11.7,4.6,4.6,2.1,-0.4,80,66,46,30.39,30.23,7,0,8,0.00
2013-1-23,20.1,16.0,9.4,15.2,8.0,3.0,84,71,52,30.36,30.10,8,1,8,0.00
2013-1-24,22.2,16.9,11.2,16.3,9.6,4.8,90,73,55,30.59,30.11,12,2,12,0.00
2013-1-25,25.4,21.3,17.7,21.8,15.6,8.8,90,79,62,30.46,30.04,12,2,12,0.00
2013-1-26,32.4,23.9,16.5,22.2,18.8,13.2,94,81,64,30.44,30.11,7,1,8,0.05
2013-1-27,35.4,27.0,16.6,32.4,22.2,12.9,96,82,70,30.45,30.18,11,2,11,0.25
2013-1-28,51.0,45.6,33.4,50.7,44.7,32.4,99,97,91,30.18,30.00,12,2,12,0.33
2013-1-29,64.7,57.2,49.9,58.8,54.2,49.6,99,90,78,30.02,29.53,20,3,20,0.01
2013-1-30,66.0,53.0,32.0,59.9,49.4,28.7,98,88,79,29.53,29.20,24,4,24,0.86
2013-1-31,32.0,26.2,15.9,29.1,20.9,12.6,92,80,63,30.00,29.46,15,2,16,0.00
2013-2-1,17.7,10.5,4.2,12.6,4.8,-0.6,91,78,64,30.39,30.00,8,1,8,0.00
2013-2-2,29.2,21.4,8.4,25.9,18.4,5.7,92,88,82,30.35,30.00,9,1,9,0.03
2013-2-3,26.1,20.9,13.7,24.0,16.4,10.9,92,83,66,30.11,29.91,6,0,7,0.01
2013-2-4,32.8,25.0,12.1,32.0,22.2,10.2,97,89,72,30.11,29.83,11,1,11,0.00
2013-2-5,34.1,30.9,26.3,31.9,27.8,23.8,97,88,77,29.98,29.83,8,1,8,0.02
2013-2-6,34.4,31.4,26.0,31.1,27.0,22.9,91,84,72,30.26,29.98,7,1,8,0.03
2013-2-7,54.1,39.7,28.1,39.7,32.7,24.5,89,77,55,30.21,29.78,10,2,10,0.01
2013-2-8,50.9,36.2,28.2,43.1,31.9,21.9,96,85,61,30.29,29.76,13,2,13,0.17
2013-2-9,38.6,28.4,18.0,25.3,21.6,16.0,95,77,49,30.42,30.23,8,2,9,0.00
2013-2-10,51.5,41.1,29.1,44.4,31.1,22.3,90,69,46,30.24,29.76,18,4,18,0.02
2013-2-11,51.3,45.3,34.3,48.8,37.6,28.8,95,75,53,29.99,29.71,16,3,18,0.01
2013-2-12,50.0,35.6,26.6,32.0,27.5,24.3,92,74,43,30.10,29.90,9,0,9,0.00
2013-2-13,36.9,30.7,27.7,31.0,27.9,25.8,94,89,76,29.90,29.75,9,1,9,0.05
2013-2-14,51.3,36.8,28.2,40.3,33.1,26.7,97,87,62,29.97,29.79,13,2,13,0.00
2013-2-15,39.8,30.7,20.3,34.0,28.0,18.6,97,90,66,30.13,29.95,10,0,10,0.01
2013-2-16,28.5,20.6,13.4,23.5,16.5,11.2,96,84,67,30.12,30.02,8,0,8,0.03
2013-2-17,32.7,20.3,10.2,17.7,12.5,7.8,92,73,45,30.24,30.11,9,1,9,0.01
2013-2-18,58.2,50.2,34.3,40.6,34.0,20.7,85,54,40,30.09,29.72,21,4,21,0.07
2013-2-19,44.1,31.6,23.3,41.4,27.9,17.6,95,86,77,30.07,29.60,18,2,18,0.15
2013-2-20,27.0,21.8,17.3,19.6,15.8,12.2,86,77,64,30.30,30.07,9,1,9,0.01
2013-2-21,27.9,24.3,20.7,23.8,19.3,15.0,86,81,76,30.35,30.07,16,4,17,0.00
2013-2-22,40.2,33.1,27.6,38.7,31.6,23.5,98,94,84,30.08,29.89,16,3,17,0.02
2013-2-23,44.7,34.4,29.6,32.1,29.4,25.9,98,83,54,29.97,29.88,7,0,9,0.01
2013-2-24,41.6,30.3,24.7,29.0,24.2,21.1,94,79,57,30.15,29.91,10,1,10,0.00
2013-2-25,43.7,32.6,21.6,31.2,25.4,19.4,93,76,57,30.18,29.91,14,4,20,0.00
2013-2-26,45.0,39.1,33.5,44.2,35.8,26.4,97,88,71,29.91,29.36,19,6,20,0.59
2013-2-27,41.9,36.3,31.8,40.6,34.6,30.8,96,93,88,29.67,29.47,14,2,14,0.06
2013-2-28,35.2,33.0,30.8,34.1,31.8,29.5,97,95,93,29.92,29.64,7,0,7,0.09
2013-3-1,35.0,32.4,28.4,32.6,29.9,23.6,97,91,82,30.02,29.90,8,2,8,0.06
2013-3-2,28.4,26.8,25.6,24.1,22.3,20.9,87,83,79,30.06,30.00,11,2,11,0.00
2013-3-3,32.9,27.7,21.2,23.3,21.5,18.4,90,78,62,30.07,30.02,11,1,13,0.01
2013-3-4,42.6,29.9,16.5,30.3,22.4,14.8,96,75,47,30.16,30.01,8,1,8,0.03
2013-3-5,35.9,33.8,32.1,34.0,31.5,29.9,97,91,81,30.03,29.55,15,5,15,0.30
2013-3-6,33.5,30.6,28.4,31.7,29.2,27.1,97,95,90,30.23,29.58,8,0,8,0.11
2013-3-7,43.4,33.2,28.8,36.1,30.5,27.8,97,90,70,30.36,30.21,6,0,6,0.00
2013-3-8,42.0,31.2,22.6,28.4,24.3,20.2,93,77,52,30.46,30.35,9,2,9,0.00
2013-3-16,35.0,34.7,34.4,32.1,31.8,31.5,90,89,88,30.00,29.94,6,2,7,1.42
2013-3-17,36.5,34.1,32.3,31.6,29.6,26.8,91,83,76,30.13,29.99,15,5,15,0.00
2013-3-18,48.8,39.4,32.3,48.2,38.1,29.8,99,95,81,30.00,29.58,15,2,15,0.97
2013-3-19,45.8,35.7,27.1,36.3,27.4,21.5,93,73,43,30.06,29.78,15,2,15,0.01
2013-3-20,40.9,30.2,22.1,26.0,21.0,12.8,89,69,44,30.06,29.92,10,1,11,0.00
2013-3-21,33.1,24.9,19.1,22.8,17.1,13.7,87,72,56,30.02,29.91,9,1,9,0.01
2013-3-22,44.4,30.1,17.7,25.7,20.2,14.7,91,69,40,30.07,29.98,7,0,7,0.00
2013-3-23,49.9,37.4,25.2,28.6,24.5,20.4,87,62,36,30.05,29.88,10,2,11,0.00
2013-3-24,35.8,32.9,31.6,31.7,29.0,25.9,97,86,70,29.88,29.39,22,7,22,0.01
2013-3-25,33.9,31.7,29.2,32.6,30.8,28.5,98,96,94,29.91,29.40,9,1,9,0.31
2013-3-26,41.6,34.0,29.1,35.1,31.1,27.6,98,89,72,30.20,29.91,7,0,7,0.11
2013-3-27,44.1,34.6,27.9,34.4,28.9,24.7,94,80,60,30.28,30.19,8,0,11,0.00
2013-3-28,52.3,37.8,25.9,34.7,28.5,23.5,92,71,44,30.33,30.26,9,1,10,0.00
2013-3-29,57.1,41.1,26.1,37.0,30.9,24.4,95,70,40,30.30,30.18,10,0,10,0.00
2013-3-30,58.1,44.0,29.0,36.7,32.3,26.4,93,67,40,30.22,29.92,10,1,10,0.00
2013-3-31,58.0,47.8,42.8,49.5,42.8,34.4,97,83,61,29.92,29.72,8,0,8,0.05
2013-4-1,48.1,40.3,30.1,41.2,29.8,21.2,91,68,40,30.09,29.74,14,1,14,0.00
2013-4-2,48.7,34.6,20.4,26.6,21.1,16.9,88,60,35,30.24,30.09,10,1,10,0.00
2013-4-3,46.5,35.4,23.7,24.0,18.6,14.1,76,51,34,30.40,30.24,12,2,13,0.00
2013-4-4,56.5,39.8,29.7,27.0,21.6,15.9,67,50,23,30.34,29.96,10,2,12,0.00
2013-4-5,59.8,45.3,31.1,40.0,29.9,23.7,81,57,37,30.11,29.94,12,2,13,0.00
2013-4-6,64.6,49.4,34.1,38.7,30.6,23.9,67,50,33,30.19,29.87,13,4,13,0.00
2013-4-7,76.5,63.7,57.1,53.4,45.5,37.5,81,52,37,29.92,29.79,13,2,13,0.00
2013-4-8,72.0,61.1,49.4,57.3,53.3,48.3,98,77,58,29.94,29.81,18,2,18,0.08
2013-4-9,80.5,67.0,52.1,63.1,56.2,49.1,95,71,45,29.99,29.85,15,2,15,0.00
2013-4-10,82.7,71.5,62.2,67.7,61.3,57.4,85,71,53,29.89,29.71,14,2,17,0.00
2013-4-11,65.3,61.2,57.5,63.1,58.7,55.8,98,92,83,29.77,29.48,13,2,13,0.93
2013-4-12,57.5,46.3,39.7,57.1,42.3,34.8,99,86,68,29.87,29.45,10,1,12,0.17
2013-4-13,59.0,45.6,37.7,45.0,37.9,33.6,88,75,51,30.00,29.87,11,1,12,0.00
2013-4-14,68.7,52.4,34.1,49.0,41.0,31.5,92,68,42,30.04,29.85,11,2,11,0.00
2013-4-15,68.5,61.4,52.1,56.7,51.5,42.2,84,70,52,29.94,29.85,11,2,13,0.00
2013-4-16,79.1,63.7,56.7,67.9,58.4,53.5,98,84,60,30.11,29.89,14,2,15,0.35
2013-4-17,77.7,62.8,51.7,66.6,58.9,51.2,99,88,64,30.16,29.91,12,3,13,0.44
2013-4-18,83.0,72.4,63.3,66.0,59.9,53.3,86,67,44,29.92,29.54,22,5,22,0.00
2013-4-19,73.2,49.3,38.2,60.6,42.5,31.8,96,78,55,29.92,29.34,17,3,19,0.55
2013-4-20,51.7,41.2,33.9,37.8,32.2,27.0,93,72,46,30.38,29.91,8,1,9,0.00
2013-4-21,53.6,42.0,29.8,37.2,29.6,23.7,80,62,41,30.52,30.36,14,3,14,0.00
2013-4-22,70.3,52.5,36.7,45.5,36.8,28.0,81,57,33,30.36,30.10,9,2,9,0.00
2013-4-23,70.1,58.4,44.8,54.3,47.0,38.0,85,67,52,30.11,29.80,12,2,12,0.00
2013-4-24,64.5,49.9,35.2,56.2,45.4,34.0,97,86,61,30.17,29.71,14,1,15,0.76
2013-4-25,60.2,44.1,31.9,45.3,36.4,31.0,98,76,48,30.35,30.17,12,1,13,0.01
2013-4-26,59.8,46.2,30.5,43.0,34.2,28.9,95,66,37,30.45,30.32,7,1,7,0.00
2013-4-27,68.5,54.3,41.1,51.7,42.3,33.1,87,65,39,30.33,30.02,14,2,14,0.02
2013-4-28,66.5,58.3,54.5,61.8,55.9,50.9,97,92,78,30.02,29.77,12,2,12,0.26
2013-4-29,63.9,57.7,51.4,59.3,55.1,49.8,99,91,76,29.94,29.83,5,0,5,0.01
2013-4-30,76.4,61.4,47.8,61.7,54.2,47.3,99,80,49,30.02,29.93,7,1,8,0.01
2013-5-1,81.2,66.8,52.4,65.5,57.3,51.0,97,74,47,30.13,30.01,11,2,11,0.00
2013-5-2,73.3,64.7,57.9,59.2,55.0,51.4,85,71,56,30.16,30.04,13,2,13,0.00
2013-5-3,75.4,66.0,56.9,60.3,52.8,38.7,90,65,35,30.04,29.91,20,4,22,0.00
2013-5-4,68.5,62.4,55.9,51.5,47.5,40.0,74,59,45,29.96,29.89,16,4,16,0.00
2013-5-5,62.9,57.4,53.3,53.7,48.0,41.1,92,71,50,29.94,29.88,14,2,14,0.05
2013-5-6,59.9,56.0,52.6,57.7,54.1,50.6,97,94,87,29.93,29.86,15,4,15,0.63
2013-5-7,72.3,61.3,55.0,61.7,57.3,54.1,97,87,63,29.94,29.86,11,2,11,0.02
2013-5-8,73.7,62.7,53.5,62.7,57.0,52.1,97,83,59,29.94,29.87,9,1,10,0.01
2013-5-9,80.0,65.1,51.9,67.8,58.9,51.0,99,82,51,29.97,29.88,6,0,8,0.03
2013-5-10,68.8,62.3,57.7,64.4,60.8,56.9,99,95,84,29.94,29.74,11,1,12,1.17
2013-5-11,60.8,52.4,42.7,60.5,50.5,41.0,99,93,80,29.95,29.78,14,0,14,0.06
2013-5-12,57.2,46.0,35.2,44.0,39.0,34.7,99,79,50,30.08,29.95,6,0,8,0.01
2013-5-13,61.3,49.0,38.0,42.5,37.5,31.9,93,67,38,30.14,30.07,10,1,12,0.00
2013-5-14,78.5,61.1,41.9,60.0,47.4,35.5,84,62,46,30.10,29.78,16,2,16,0.00
2013-5-15,86.2,75.0,65.4,69.6,61.6,58.6,80,64,45,29.81,29.72,12,2,12,0.00
2013-5-16,78.8,68.1,61.0,69.0,63.0,58.4,98,85,61,29.92,29.76,9,0,9,0.45
2013-5-17,78.6,65.6,57.4,69.2,62.6,57.1,100,91,58,30.01,29.92,7,1,8,0.34
2013-5-18,78.0,68.0,61.6,68.9,64.4,60.9,98,89,67,30.01,29.91,12,1,12,0.04
2013-5-19,82.5,70.6,61.6,71.7,66.3,61.3,100,88,61,29.95,29.84,9,1,9,0.01
2013-5-20,78.3,70.1,67.2,72.1,67.8,64.7,99,93,80,29.94,29.81,8,1,8,0.00
2013-5-21,83.4,75.0,65.6,70.2,66.1,62.6,93,75,55,29.89,29.72,13,2,13,0.00
2013-5-22,79.2,69.0,62.9,70.4,64.0,60.8,98,85,62,29.78,29.66,12,2,12,0.42
2013-5-23,69.2,61.8,49.9,63.7,59.3,45.3,100,92,75,30.03,29.73,17,1,20,0.69
2013-5-24,62.9,53.0,44.9,48.7,42.9,37.9,90,70,44,30.27,30.03,16,3,16,0.00
2013-5-25,65.5,54.2,41.8,52.3,44.6,39.1,91,71,46,30.36,30.18,7,0,9,0.00
2013-5-26,68.8,59.3,47.0,51.7,46.3,42.1,94,64,42,30.27,30.14,8,1,8,0.00
2013-5-27,78.8,65.5,52.3,63.6,55.0,47.7,93,70,50,30.17,29.90,13,2,14,0.17
2013-5-28,81.7,74.1,64.8,69.0,63.6,59.5,90,70,55,29.95,29.86,13,2,16,0.01
2013-5-29,85.1,75.5,65.4,68.9,63.1,59.7,83,67,44,30.01,29.91,12,2,12,0.00
2013-5-30,85.2,76.6,68.9,71.9,66.9,63.5,85,73,58,30.08,29.93,12,2,12,0.00
2013-5-31,81.4,72.1,65.9,73.1,66.8,63.8,98,84,66,29.99,29.88,16,2,22,0.74
2013-6-1,80.3,73.2,67.4,71.7,68.2,65.7,98,85,68,29.90,29.70,15,3,15,0.01
2013-6-2,76.8,69.8,63.7,67.9,63.4,58.7,93,81,62,29.87,29.73,14,1,14,0.00
2013-6-3,65.6,60.0,54.0,59.3,54.0,49.9,90,81,69,30.02,29.86,11,2,11,0.00
2013-6-4,73.6,62.1,48.9,51.6,48.2,42.1,91,63,38,30.12,30.01,18,2,18,0.00
2013-6-5,80.0,68.3,55.2,66.0,56.1,48.9,88,66,49,30.05,29.80,10,2,10,0.01
2013-6-6,68.6,65.0,61.6,66.8,63.0,58.4,98,93,83,29.82,29.72,9,2,9,0.82
2013-6-7,72.0,63.1,56.6,61.1,57.9,54.6,98,84,59,29.85,29.75,10,3,11,0.00
2013-6-8,72.0,63.7,53.7,63.0,58.2,52.6,98,83,69,29.99,29.83,7,1,8,0.00
2013-6-9,80.5,71.1,60.5,67.4,63.8,58.8,97,79,57,30.02,29.84,12,2,12,0.00
2013-6-10,79.0,67.9,63.1,70.2,65.4,62.2,99,92,64,29.84,29.72,10,1,11,0.62
2013-6-11,83.2,71.7,61.6,73.5,66.9,61.3,100,86,58,29.90,29.79,7,0,7,0.02
2013-6-12,87.4,78.1,67.9,79.0,72.2,66.2,96,83,66,29.85,29.64,10,1,10,0.00
2013-6-13,80.9,69.3,62.4,73.8,64.4,57.3,99,85,62,29.85,29.52,19,2,19,1.43
2013-6-14,76.5,67.0,57.1,65.2,59.3,54.8,93,77,56,30.00,29.85,12,2,12,0.00
2013-6-15,80.5,69.6,56.4,69.0,61.9,55.4,99,78,57,30.07,29.89,10,1,11,0.00
2013-6-16,76.9,70.5,66.1,71.3,66.6,63.0,97,88,78,29.95,29.87,9,0,9,0.09
2013-6-17,84.5,73.2,65.9,74.3,68.7,63.7,100,87,57,29.92,29.81,6,0,6,0.00
2013-6-18,81.3,71.5,64.8,74.9,66.1,59.1,99,84,62,29.94,29.78,11,2,11,0.84
2013-6-19,77.0,66.5,57.0,62.1,56.6,52.9,92,72,48,30.07,29.93,9,2,9,0.00
2013-6-20,82.5,70.2,57.1,67.5,59.7,52.8,90,71,49,30.15,30.07,6,1,6,0.00
2013-6-21,85.2,73.9,59.8,70.2,64.1,57.5,95,73,51,30.16,30.05,7,1,8,0.00
2013-6-22,86.7,75.3,65.9,78.2,70.2,64.6,97,85,63,30.10,29.98,10,1,10,0.25
2013-6-23,87.5,74.4,66.0,75.8,68.9,64.8,100,85,54,30.07,29.96,11,1,11,0.04
2013-6-24,85.0,74.3,65.0,75.6,69.5,64.4,99,86,56,30.07,29.95,10,1,10,0.01
2013-6-25,88.9,78.3,67.5,79.1,72.1,67.0,99,82,61,30.00,29.80,8,1,9,0.01
2013-6-26,83.3,73.2,67.2,76.0,70.0,66.3,99,90,75,29.87,29.69,8,1,10,0.65
2013-6-27,84.3,72.9,67.2,77.7,70.6,66.9,100,93,74,29.73,29.61,6,0,6,0.14
2013-6-28,84.0,72.1,63.0,74.6,67.4,58.6,99,87,51,29.62,29.51,18,1,19,0.15
2013-6-29,77.3,67.9,60.3,70.1,64.7,59.9,100,90,73,29.60,29.50,9,0,9,0.01
2013-6-30,79.3,68.5,63.8,69.0,65.4,62.6,99,90,63,29.78,29.60,9,1,9,0.47
2013-7-1,75.8,67.9,63.9,70.3,65.4,61.1,96,92,80,29.86,29.75,11,3,11,0.10
2013-7-2,80.9,71.7,65.0,71.3,67.3,64.3,99,87,66,29.95,29.85,8,2,8,0.02
2013-7-3,80.1,73.0,66.6,71.7,68.4,65.8,99,86,68,30.05,29.94,10,1,10,0.00
2013-7-4,71.5,69.0,67.2,69.7,68.5,66.6,99,98,90,30.09,30.01,8,1,10,1.35
2013-7-5,76.8,70.1,65.6,71.1,68.3,65.3,100,94,80,30.09,30.02,7,1,7,0.14
2013-7-6,76.8,70.5,67.6,74.3,69.9,67.0,100,98,89,30.07,29.97,9,1,10,1.46
2013-7-7,80.8,70.5,64.5,73.4,68.1,64.2,100,92,72,30.06,29.96,5,0,7,0.00
2013-7-8,85.2,75.4,67.4,77.9,71.6,66.5,99,88,74,30.07,29.97,6,0,7,0.00
2013-7-9,88.9,78.1,72.0,80.8,73.8,70.0,99,87,69,30.00,29.90,10,1,10,0.14
2013-7-10,88.5,75.9,66.6,81.0,73.0,65.3,99,91,74,29.92,29.75,10,1,21,0.31
2013-7-11,78.0,70.3,65.0,70.4,64.6,57.9,100,83,63,29.96,29.86,16,2,16,0.00
2013-7-12,77.4,69.1,59.3,64.4,60.3,56.5,92,74,55,30.04,29.96,11,2,11,0.00
2013-7-13,82.2,72.9,63.9,70.0,65.7,60.8,90,79,61,30.09,30.00,12,3,13,0.00
2013-7-14,87.5,78.5,67.3,78.0,71.8,65.7,96,81,65,30.15,30.07,10,1,10,0.00
2013-7-15,90.0,80.7,70.5,75.9,72.3,69.3,97,77,51,30.23,30.15,6,1,7,0.00
2013-7-16,91.3,80.5,70.2,80.5,74.1,69.7,100,82,57,30.26,30.17,6,0,6,0.00
2013-7-17,89.9,81.1,73.3,79.4,74.8,72.1,97,82,62,30.25,30.10,8,1,8,0.00
2013-7-18,92.8,81.5,73.0,79.2,73.7,70.6,95,79,51,30.13,29.94,6,0,6,0.00
2013-7-19,88.9,78.4,70.8,80.7,74.6,68.6,99,89,67,29.97,29.81,8,1,9,0.60
2013-7-20,85.3,75.0,69.3,78.7,72.5,67.5,99,93,72,29.86,29.77,15,1,16,0.35
2013-7-21,82.3,73.9,67.2,75.7,70.9,67.0,100,91,70,29.91,29.82,8,1,8,0.01
2013-7-22,74.8,71.9,68.6,73.5,70.6,68.2,100,96,90,29.85,29.69,7,0,7,0.61
2013-7-23,85.2,73.8,67.4,78.9,71.0,66.1,100,91,73,29.76,29.66,11,1,11,0.00
2013-7-24,74.7,66.1,59.4,66.2,60.0,55.4,95,81,64,29.94,29.74,13,3,13,0.00
2013-7-25,75.4,64.9,54.6,61.2,56.8,52.7,94,76,52,30.03,29.94,9,2,10,0.00
2013-7-26,76.1,62.6,56.4,64.1,58.0,54.8,96,86,60,30.04,30.00,4,0,5,0.00
2013-7-27,71.3,64.8,60.7,62.9,60.5,57.9,94,86,70,29.83,29.77,3,0,4,0.59
2013-7-28,71.2,61.9,53.0,60.1,55.5,52.5,99,81,57,30.00,29.83,10,1,10,0.00
2013-7-29,77.1,64.7,53.4,64.5,58.0,52.2,98,81,56,30.13,30.00,7,1,8,0.00
2013-7-30,77.8,68.0,56.1,68.0,61.5,55.0,98,81,56,30.18,30.06,5,0,6,0.00
2013-7-31,73.0,68.3,64.9,68.6,65.8,63.5,98,92,84,30.06,29.88,6,1,6,0.02
2013-8-1,80.1,70.6,61.3,70.5,66.0,59.3,99,86,65,29.93,29.85,9,0,9,0.05
2013-8-2,81.4,69.6,56.7,69.0,63.0,55.9,99,81,55,29.95,29.88,9,1,9,0.01
2013-8-3,78.1,70.1,64.1,72.6,66.9,62.2,99,90,65,29.96,29.89,8,0,8,0.14
2013-8-4,75.6,66.7,59.0,63.1,58.9,55.7,96,77,54,30.08,29.96,12,2,13,0.00
2013-8-5,76.7,66.5,55.4,64.0,59.4,54.4,99,80,55,30.07,29.92,8,1,8,0.01
2013-8-6,80.1,69.9,59.5,70.2,64.0,57.4,95,82,66,29.93,29.86,9,1,9,0.01
2013-8-7,69.0,67.6,66.6,68.5,66.7,65.5,99,97,95,29.88,29.86,3,0,4,0.00
2013-8-8,73.9,71.7,70.7,73.6,71.4,70.3,100,99,97,29.86,29.82,5,0,5,2.13
2013-8-9,79.1,72.3,69.0,75.0,70.8,68.3,100,96,76,29.97,29.83,8,1,8,0.17
2013-8-10,84.1,73.3,65.4,74.8,69.4,65.1,100,89,65,30.06,29.96,7,0,7,0.00
2013-8-11,85.0,74.4,65.3,76.1,69.7,65.0,100,86,65,30.03,29.95,9,0,9,0.00
2013-8-12,84.8,73.4,63.5,74.2,68.1,62.9,100,85,59,30.01,29.81,9,0,9,0.00
2013-8-13,77.0,69.5,57.0,70.4,63.5,50.8,100,82,63,29.99,29.77,11,2,12,0.01
2013-8-14,68.5,59.1,51.5,55.5,51.4,48.6,96,77,58,30.12,29.99,10,2,10,0.00
2013-8-15,71.7,61.4,49.9,58.5,54.0,48.5,97,78,57,30.14,30.04,8,1,8,0.00
2013-8-16,74.9,65.6,56.3,61.1,56.5,52.5,88,73,53,30.11,30.06,10,2,10,0.00
2013-8-17,79.1,67.7,57.8,66.7,60.2,54.2,91,78,59,30.14,30.07,9,2,9,0.00
2013-8-18,79.4,68.7,59.2,67.3,62.8,58.0,98,83,60,30.12,30.03,8,1,8,0.00
2013-8-19,81.3,69.7,59.3,69.1,63.0,58.9,100,82,51,30.08,30.00,8,1,8,0.00
2013-8-20,83.2,71.3,60.8,71.2,65.0,60.5,100,83,56,30.12,30.03,8,1,8,0.01
2013-8-21,83.3,72.9,65.6,74.7,68.7,63.6,95,87,68,30.10,29.98,7,0,7,0.00
2013-8-22,84.1,72.4,65.8,76.4,69.6,65.2,99,91,68,30.05,29.95,12,0,12,0.09
2013-8-23,82.7,72.5,65.0,72.6,67.2,62.0,100,85,59,30.09,29.97,10,2,10,0.01
2013-8-24,82.8,70.7,60.5,70.3,62.4,55.9,90,76,54,30.20,30.09,8,1,8,0.00
2013-8-25,84.3,71.6,59.3,67.9,62.3,53.2,99,76,37,30.27,30.16,8,1,8,0.00
2013-8-26,87.3,73.8,62.3,75.9,68.6,61.0,99,85,59,30.19,30.00,7,0,8,0.00
2013-8-27,88.5,76.7,68.0,79.1,73.0,67.7,100,89,67,30.00,29.88,6,0,6,0.00
2013-8-28,90.0,79.7,71.7,80.1,74.6,71.1,99,86,67,29.89,29.79,10,1,10,0.00
2013-8-29,81.3,73.4,68.2,73.7,70.4,67.3,99,91,73,29.98,29.88,8,1,8,0.00
2013-8-30,87.3,74.9,65.9,75.0,69.9,65.7,100,86,57,29.94,29.76,6,0,7,0.01
2013-8-31,84.6,75.1,69.0,78.1,71.7,68.0,99,90,74,29.79,29.70,7,1,9,0.13
2013-9-1,84.4,73.5,65.8,76.3,69.9,65.2,99,89,68,29.77,29.68,7,0,7,0.00
2013-9-2,83.8,73.7,65.6,75.9,69.6,60.1,100,88,65,29.82,29.70,8,0,12,0.01
2013-9-3,72.9,63.7,55.1,60.7,57.3,54.0,97,81,61,30.01,29.82,11,2,11,0.00
2013-9-4,78.8,64.0,53.1,64.4,58.7,52.3,97,84,54,30.07,30.00,4,0,4,0.00
2013-9-5,83.0,69.1,57.6,67.9,60.3,49.5,98,76,54,30.15,30.06,9,1,10,0.00
2013-9-6,78.0,63.3,52.2,55.2,51.1,44.2,90,67,32,30.19,30.06,8,1,8,0.00
2013-9-7,85.7,68.8,53.7,69.7,60.5,50.1,93,76,53,30.06,29.89,7,0,8,0.00
2013-9-8,87.8,74.7,65.0,72.5,68.1,63.9,100,81,54,29.94,29.86,9,1,9,0.00
2013-9-9,88.3,76.7,65.8,74.2,69.3,64.6,99,80,55,29.97,29.89,10,1,10,0.00
2013-9-10,92.4,79.8,72.0,78.8,73.5,69.8,94,82,60,30.05,29.94,10,1,10,0.00
2013-9-11,90.3,78.0,69.7,77.6,72.2,68.2,97,83,58,30.08,29.94,7,0,8,0.01
2013-9-12,76.2,71.3,63.3,73.3,69.5,61.5,99,94,79,29.94,29.78,7,0,8,0.66
2013-9-13,63.2,57.3,51.0,61.5,50.7,45.2,95,79,58,30.04,29.84,13,3,15,0.00
2013-9-14,67.6,54.4,44.8,51.3,46.5,43.2,95,77,45,30.15,30.04,10,1,10,0.00
2013-9-15,74.8,59.9,44.9,59.2,52.3,44.1,99,78,50,30.11,29.98,10,1,10,0.02
2013-9-16,68.4,60.9,55.6,60.2,56.4,51.8,98,86,65,30.24,30.03,10,2,12,0.03
2013-9-17,73.7,60.2,48.9,58.0,52.9,47.5,96,79,52,30.29,30.12,10,2,10,0.00
2013-9-18,79.5,65.7,55.8,65.9,59.6,52.8,96,82,52,30.13,29.99,7,1,7,0.00
2013-9-19,68.1,68.0,67.9,67.5,67.4,67.1,98,98,97,29.94,29.93,1,0,1,0.22
2013-9-20,68.2,68.1,68.0,67.9,67.8,67.7,99,99,99,29.76,29.74,2,0,2,1.48
2013-9-22,50.6,50.5,50.5,46.0,45.8,45.5,84,84,83,29.96,29.96,0,0,0,0.00
2013-9-23,66.5,58.4,43.9,51.8,48.7,42.8,97,71,54,30.09,30.01,10,2,10,0.00
2013-9-24,70.3,56.0,43.1,57.5,49.4,42.0,98,80,60,30.06,29.89,9,1,9,0.00
2013-9-25,69.7,58.4,51.3,58.4,52.8,48.6,95,82,63,29.90,29.83,8,1,8,0.00
2013-9-26,77.4,63.2,51.5,66.7,55.2,49.3,98,77,53,30.02,29.88,8,1,8,0.00
2013-9-27,78.2,62.6,50.6,58.3,51.8,47.3,90,70,38,30.13,30.02,7,0,7,0.00
2013-9-28,78.3,63.7,50.2,62.1,54.7,48.3,96,75,44,30.14,30.01,8,0,8,0.00
2013-9-29,68.8,61.0,54.2,63.1,58.7,53.4,99,92,76,30.01,29.95,9,0,9,0.05
2013-9-30,69.0,62.9,59.9,65.0,61.4,59.2,99,95,84,29.98,29.91,6,0,6,0.01
2013-10-1,75.4,64.8,56.9,67.0,61.7,56.4,100,91,68,30.03,29.95,7,0,7,0.01
2013-10-2,79.1,67.7,59.4,71.2,65.1,59.1,100,92,73,30.06,29.98,0,0,0,0.01
2013-10-3,74.8,68.3,64.0,72.9,67.6,63.5,100,98,87,30.03,29.94,9,0,9,1.27
2013-10-4,80.8,69.8,63.8,73.3,68.0,63.7,100,94,74,30.03,29.95,5,0,6,0.08
2013-10-5,79.3,70.0,63.9,73.1,68.5,63.7,100,95,80,30.00,29.87,8,1,9,0.23
2013-10-6,71.8,63.6,52.4,68.8,63.0,51.4,100,98,89,29.89,29.64,13,2,13,1.93
2013-10-7,61.2,51.0,44.2,53.3,48.0,43.6,99,90,65,30.12,29.75,7,0,7,0.01
2013-10-8,66.1,53.7,42.4,52.3,46.6,42.0,99,79,46,30.25,30.12,10,2,12,0.01
2013-10-9,70.7,56.7,46.9,55.8,48.2,44.1,91,75,46,30.21,30.12,8,1,10,0.00
2013-10-10,72.7,56.5,45.0,54.7,47.2,42.6,96,74,41,30.15,30.03,7,0,7,0.00
2013-10-11,76.4,61.5,49.1,57.8,50.8,45.4,92,70,42,30.06,29.97,7,0,7,0.00
2013-10-12,77.4,62.9,50.5,66.0,57.5,49.4,99,84,62,30.07,29.98,8,0,8,0.00
2013-10-13,71.2,60.5,52.5,62.6,54.9,43.8,100,83,58,30.25,30.07,9,1,10,0.00
2013-10-14,70.0,57.5,46.7,54.6,47.7,43.0,90,71,46,30.28,30.14,11,2,11,0.00
2013-10-15,71.7,60.4,50.0,65.7,57.8,47.9,100,91,77,30.15,29.89,8,1,8,0.00
2013-10-16,65.4,60.1,46.1,63.1,58.2,45.0,99,93,79,29.91,29.82,7,0,7,0.12
2013-10-17,54.6,46.7,40.2,52.0,45.5,39.6,100,95,88,29.95,29.82,8,0,8,0.08
2013-10-18,64.3,50.8,41.1,52.8,45.6,40.8,100,84,54,30.01,29.90,9,1,10,0.01
2013-10-19,50.3,45.0,38.7,46.7,43.2,37.9,98,94,84,29.96,29.79,5,0,5,0.14
2013-10-20,61.1,47.6,36.6,47.3,41.3,35.9,98,80,58,30.01,29.94,12,2,12,0.02
2013-10-21,64.6,53.1,42.6,49.5,44.2,39.2,92,73,51,29.97,29.84,14,1,14,0.01
2013-10-22,52.4,42.8,29.8,43.7,34.5,28.3,97,74,44,30.00,29.83,7,0,7,0.04
2013-10-23,45.7,39.7,34.9,42.1,36.9,33.6,97,90,76,30.00,29.73,10,2,12,0.16
2013-10-24,43.5,38.4,35.2,37.6,35.2,32.6,96,88,77,30.23,30.00,9,0,10,0.01
2013-10-25,49.9,37.0,27.8,38.8,31.0,26.3,95,80,51,30.41,30.23,8,0,8,0.01
2013-10-26,48.9,39.7,30.7,40.8,33.1,27.3,91,78,62,30.25,29.90,16,1,17,0.00
2013-10-27,56.1,42.6,32.7,42.6,36.4,31.7,98,81,49,30.08,30.02,6,0,6,0.00
2013-10-28,61.2,45.2,31.2,43.6,36.7,30.3,99,75,42,30.27,30.06,7,1,7,0.00
2013-10-29,56.4,47.8,37.9,47.9,42.0,35.5,95,81,67,30.33,30.18,7,1,7,0.00
2013-10-30,61.8,56.2,50.0,61.8,55.4,45.8,100,97,79,30.18,29.95,6,1,6,0.11
2013-10-31,63.8,61.8,58.7,63.4,59.7,56.3,100,93,83,29.95,29.27,18,4,18,1.01
2013-11-1,62.6,54.1,47.4,56.3,49.6,45.5,99,85,63,29.70,29.34,10,1,15,0.06
2013-11-2,55.7,48.4,42.7,46.6,42.8,39.4,95,81,64,30.04,29.68,10,1,10,0.00
2013-11-3,51.7,43.6,37.0,43.5,39.6,34.7,97,86,58,30.34,30.04,7,0,8,0.00
2013-11-4,56.0,46.4,36.6,43.8,38.8,33.0,91,75,58,30.39,30.28,11,2,11,0.00
2013-11-5,60.6,53.3,48.0,47.7,44.3,40.2,93,72,58,30.38,30.17,8,1,8,0.01
2013-11-6,64.0,56.2,44.4,58.7,49.5,39.7,98,79,59,30.18,29.92,13,2,16,0.38
2013-11-7,48.9,41.5,33.8,43.2,36.3,30.7,98,83,54,30.21,29.96,11,1,11,0.04
2013-11-8,49.2,38.0,28.1,37.2,32.4,26.9,97,81,54,30.35,30.16,8,0,8,0.00
2013-11-9,60.5,48.4,37.9,41.4,35.4,28.8,78,62,45,30.22,29.98,14,2,15,0.00
2013-11-10,51.0,41.8,30.1,41.0,34.1,28.6,94,75,54,30.31,30.05,7,1,10,0.00
2013-11-11,49.3,39.9,28.3,44.0,35.4,27.0,97,85,57,30.28,30.06,16,2,16,0.12
2013-11-12,34.8,28.1,23.9,32.1,24.1,20.3,97,85,66,30.59,30.22,16,3,16,0.01
2013-11-13,39.5,28.9,18.5,26.9,21.5,17.1,96,76,47,30.62,30.38,8,1,8,0.00
2013-11-14,53.3,39.1,27.6,27.2,22.7,19.8,79,55,28,30.38,30.13,13,2,13,0.00
2013-11-15,51.3,43.4,38.4,33.9,26.1,22.4,56,50,45,30.15,30.07,10,1,10,0.00
2013-11-16,60.1,54.7,48.4,55.9,51.9,46.8,95,90,86,30.11,29.87,15,4,15,0.00
2013-11-17,62.7,58.1,46.0,61.8,56.1,42.5,98,93,85,29.87,29.43,19,4,20,0.76
2013-11-18,53.2,43.6,33.1,43.0,37.7,29.9,94,81,60,30.15,29.71,12,1,12,0.01
2013-11-19,40.2,33.2,27.3,31.3,28.4,25.8,96,83,67,30.34,30.14,11,1,11,0.00
2013-11-20,48.6,37.6,28.2,34.9,30.1,24.4,86,75,59,30.33,30.21,15,3,15,0.00
2013-11-21,56.2,48.1,41.0,49.5,40.9,31.9,93,76,64,30.30,30.16,10,1,10,0.05
2013-11-22,52.5,47.2,36.5,52.2,45.2,31.2,99,93,80,30.33,30.12,14,2,15,0.19
2013-11-23,38.6,29.3,19.5,31.5,23.9,11.2,97,81,59,30.53,30.31,17,2,17,0.00
2013-11-24,28.5,18.8,11.3,17.5,12.9,8.9,92,78,58,30.67,30.52,10,1,10,0.00
2013-11-25,36.3,27.7,15.7,28.9,19.1,13.0,90,71,48,30.53,30.17,13,1,13,0.00
2013-11-26,33.8,32.1,30.6,32.3,30.6,28.2,97,94,86,30.20,29.90,6,0,7,0.04
2013-11-27,32.0,26.7,20.3,29.5,21.3,16.4,91,80,65,30.26,29.88,17,2,17,0.00
2013-11-28,33.7,24.4,17.1,19.8,17.3,14.1,89,75,51,30.44,30.26,12,1,12,0.01
2013-11-29,37.2,27.6,19.1,25.6,21.1,16.2,91,77,57,30.62,30.44,9,1,9,0.00
2013-11-30,49.4,36.5,25.4,31.7,27.1,21.0,85,70,46,30.51,30.15,9,1,9,0.00
2013-12-1,51.2,41.2,35.0,38.6,33.2,28.3,90,74,60,30.15,29.92,7,1,7,0.00
2013-12-2,48.1,40.3,33.8,40.8,36.7,31.6,97,87,74,29.93,29.77,8,2,8,0.04
2013-12-3,50.9,42.1,34.6,48.0,40.8,34.1,100,95,86,29.86,29.76,8,1,8,0.01
2013-12-4,61.6,53.4,42.8,57.3,51.2,41.5,99,92,85,29.85,29.69,13,2,13,0.00
2013-12-5,62.4,48.0,31.0,59.7,45.5,29.0,97,91,84,30.11,29.71,10,1,12,0.20
2013-12-6,31.2,28.1,25.5,29.7,26.8,24.1,96,95,91,30.38,30.07,10,2,10,0.00
2013-12-7,25.6,21.1,11.4,24.4,17.9,9.3,96,88,76,30.59,30.36,9,1,9,0.15
2013-12-8,31.8,23.8,16.5,31.3,21.5,13.3,98,91,83,30.53,30.00,15,5,15,0.00
2013-12-9,32.3,28.4,22.4,31.8,26.8,19.9,98,94,87,30.21,29.98,7,1,7,0.00
2013-12-10,28.5,21.3,14.8,20.1,16.8,11.9,94,83,63,30.35,30.13,11,1,11,0.02
2013-12-11,35.7,20.3,8.5,25.5,15.8,6.4,95,83,62,30.50,30.27,10,1,10,0.03
2013-12-12,22.9,14.7,0.6,11.9,7.1,-2.1,92,73,45,30.55,30.34,8,1,8,0.00
2013-12-13,36.3,27.0,17.0,30.7,18.8,10.9,95,71,58,30.35,30.15,9,1,9,0.03
2013-12-14,35.9,33.4,30.6,35.7,32.8,30.0,99,98,95,30.16,29.69,12,2,12,0.48
2013-12-15,30.5,26.6,24.5,30.0,24.0,19.7,98,90,78,30.10,29.83,12,1,12,0.00
2013-12-16,30.8,25.7,23.4,30.0,24.2,21.8,97,94,87,30.12,29.98,9,2,9,0.00
2013-12-17,31.9,28.6,23.8,31.4,26.5,21.8,98,92,84,30.14,29.96,6,0,6,0.06
2013-12-18,35.3,26.9,17.2,22.9,20.0,15.8,96,77,57,30.25,30.04,9,1,9,0.05
2013-12-19,50.6,43.3,33.4,41.3,32.6,21.9,75,66,59,30.07,29.92,9,2,10,0.05
2013-12-20,58.7,52.9,49.9,57.0,47.1,38.1,98,81,62,29.93,29.77,12,3,13,0.01
2013-12-21,65.7,59.6,55.8,63.2,58.8,55.2,100,97,91,29.77,29.40,20,4,22,1.67
2013-12-22,61.6,52.3,38.2,61.3,49.7,37.1,99,91,76,29.98,29.46,18,3,22,0.38
2013-12-23,38.1,31.4,25.7,37.1,27.7,21.0,97,86,76,30.35,29.98,8,0,8,0.01
2013-12-24,25.7,17.8,12.2,22.0,13.4,8.6,92,83,68,30.55,30.33,8,0,8,0.00
2013-12-25,32.4,24.9,16.0,25.7,17.8,13.7,91,75,56,30.50,30.18,12,2,12,0.00
2013-12-26,39.9,32.4,27.6,27.8,24.7,21.1,86,74,53,30.33,30.16,10,1,11,0.00
2013-12-27,47.6,36.6,29.0,34.2,28.5,24.4,84,73,56,30.38,30.25,9,1,9,0.00
2013-12-28,52.2,41.5,33.8,37.0,31.7,28.6,83,69,51,30.25,29.99,8,1,11,0.00
2013-12-29,42.4,38.3,31.9,41.3,35.6,29.7,98,91,63,29.99,29.75,8,1,8,0.33
2013-12-30,31.8,26.5,21.8,29.8,22.9,16.9,92,86,79,30.21,29.98,7,1,7,0.01
2013-12-31,32.9,26.4,21.8,23.9,19.6,15.9,84,75,62,30.35,30.14,9,1,9,0.00
2014-1-1,42.6,31.6,21.3,31.0,26.0,19.0,93,80,62,30.29,30.00,8,1,8,0.00
2014-1-2,30.7,21.8,9.0,28.7,19.8,5.9,97,92,86,30.25,29.81,17,4,17,0.00